User: anonymous   Login
Location: Unspecified
(0.0000°N, 0.0000°E)
Time: 21:28:19
(UTC+00:00)
Language:

Vela 3A - Orbit

View from above orbital plane
View from above orbital plane
View from above satellite
View from above satellite

Ground track
Ground track

The orbit data is extracted from the following two-line orbital elements,

1 01458U 65058A   22018.46747486 -.00001222  00000-0  00000-0 0  9999
2 01458  20.8548  10.2912 4955298 273.9661 358.5910  0.21343282  8620
Epoch (UTC): 18 January 2022 11:13:09
Eccentricity: 0.4955298
inclination: 20.8548°
perigee height: 53287 km
apogee height: 170504 km
right ascension of ascending node: 10.2912°
argument of perigee: 273.9661°
revolutions per day: 0.21343282
mean anomaly at epoch: 358.5910°
orbit number at epoch: 862

The dashed part of the orbit path shows where the satellite is in the earth's shadow,  

DLR